SCP
0 0 0 0 0 0 0 0 0 0 0 0 0 0 0 0 0 0 0 0 0 0 0 0 0 0 0 0 0 0 0 0 0 0 0 0 0 0 0 0 0 0 0 0
0 0 0 0 0 0 0 0 0 0 0 0 0 0 0 0 0 0 0 0 0 0 0 0 0 0 0 0 0 0 0 0 0 0 0 0 0 0 0 0 0 0 0 0
0 0 0 0 0 0 0 0 0 0 0 0 0 0 0 0 0 0 0 0 0 0 0 0 0 0 0 0 0 0 0 0 0 0 0 0 0 0 0 0 0 0 0 0
0 0 0 0 0 0 0 0 0 0 0 0 0 0 0 0 0 0 0 0 0 0 0 0 0 0 0 0 0 0 0 0 0 0 0 0 0 0 0 0 0 0 0 0
0 0 0 0 0 0 0 0 0 0 0 0 0 0 -0 0 0 0 0 0 0 0 0 0 0 0 0 0 0 0 0 0 0 0 0 0 0 0 0 0 0 0 0 0
0 0 0 0 0 0 0 0 0 0 0 0 0 0 0 0 0 0 0 0 0 0 0 0 0 0 0 0 0 0 0 0 0 0 0 0 0 0 0 0 0 0 0 0
0 0 0 0 0 0 0 0 0 0 0 0 0 0 0 0 0 0 0 0 0 0 0 0 0 0 0 0 0 0 0 0 0 0 0 0 0 0 0 0 0 0 0 0
0 0 0 0 0 0 0 0 0 0 0 0 0 0 0 0 0 0 0 0 0 0 0 0 0 0 0 0 0 0 0 0 0 0 0 0 0 0 0 0 0 0 0 0
0 0 0 0 0 0 0 0 0 0 0 0 0 0 0 0 0 0 0 0 0 0 0 0 0 0 0 0 0 0 0 0 0 0 0 0 0 0 0 0 0 0 0 0
-0 0 -0 0 0 0 0 0 0 0 0 0 0 0 0 0 0 0 0 0 0 0 0 0 0 0 0 0 0 0 0 0 0 0 0 0 0 0 0 0 0 0 0 0
0 -0 0 -0 0 0 0 0 0 0 0 0 0 0 0 0 0 0 0 0 0 0 0 0 0 0 0 0 0 0 0 0 0 0 0 0 0 0 0 0 0 0 0 0
0 0 -0 0 0 0 0 0 0 0 0 0 0 0 0 0 0 0 0 0 0 0 0 0 0 0 0 0 0 0 0 0 0 0 0 0 0 0 0 0 0 0 0 0
0 0 -0 -0 0 0 0 0 0 0 0 0 0 0 0 -0 0 0 0 0 0 0 0 0 0 0 0 0 0 0 0 0 0 0 0 0 0 0 0 0 0 0 0 0
0 0 0 0 0 0 0 0 0 0 0 0 0 0 -0 -0 -0 0 0 0 0 0 0 0 0 0 0 0 0 0 0 0 0 0 0 0 0 0 0 0 0 0 0 0
0 0 0 0 0 0 0 0 0 0 0 0 0 0 -0 -0 0 0 0 0 0 0 0 0 0 0 0 0 0 0 0 0 0 0 0 0 0 0 0 0 0 0 0 0
0 0 0 0 -0 0 0 0 0 -0 -0 -0 0 0 0 0 0 0 0 0 0 0 0 0 0 0 0 0 0 0 0 0 0 0 0 0 0 0 0 0 0 0 0 0
0 0 0 0 0 0 0 -0 -0 0 -0 -0 -0 0 -0 0 0 0 0 0 0 0 0 0 0 0 0 0 0 0 0 0 0 0 0 0 0 0 0 0 0 0 0 0
0 0 0 0 0 0 0 0 0 0 0 0 0 0 0 -0 -0 -0 -0 0 -0 -0 0 0 0 0 0 0 0 0 0 0 0 0 0 0 0 0 0 0 0 0 0 0
0 0 0 0 0 0 0 0 0 0 0 0 0 0 0 -0 -0 -0 0 0 0 0 0 0 0 0 0 0 0 0 0 0 0 0 0 0 0 0 0 0 0 0 0 0
0 0 0 0 0 0 0 -0 -0 -0 0 0 0 0 0 0 0 -0 0 0 0 0 0 0 0 0 0 0 0 0 0 0 0 0 0 0 0 0 0 0 0 0 0 0
0 0 0 0 0 0 0 0 -0 0 0 -0 -0 -0 -0 -0 -0 0 0 0 0 0 0 0 0 0 0 0 0 0 0 0 0 0 0 0 0 0 0 0 0 0 0 0
0 0 0 0 0 0 0 -0 -0 0 -0 -0 -0 -0 -0 -0 -0 -0 -0 -0 -0 -0 -0 0 0 0 0 0 0 0 0 0 0 0 0 0 0 0 0 0 0 0 0 0
0 0 0 0 0 0 -0 -0 0 0 0 -0 0 0 0 0 -0 0 -0 -0 -0 -0 -0 -0 -0 -0 -0 -0 -0 0 0 0 0 0 0 0 0 0 0 0 0 0 0 0
0 0 0 0 0 0 0 0 0 0 0 0 0 0 0 0 0 0 0 0 0 -0 -0 -0 -0 -0 -0 -0 -0 -0 -0 -0 -0 0 0 0 0 0 0 0 0 0 0 0
0 0 0 0 0 0 0 0 0 0 0 0 0 0 0 0 0 0 0 0 0 0 0 0 -0 -0 -0 -0 -0 -0 -0 -0 -0 -0 -0 -0 -0 0 0 0 0 0 0 0
0 0 0 0 0 0 0 0 0 0 0 0 0 0 0 0 0 0 0 0 0 0 0 0 -0 -0 -0 -0 -0 -0 -0 -0 -0 -0 -0 -0 -0 -0 -0 0 0 0 0 0
Wind_Speed_500mb
38 14 32 65 47 49 44 40 44 44 22 20 39 49 42 28 42 39 55 64 74 80 86 74 71 75 78 80 84 90 97 101 99 103 107 104 102 95 89 83 78 73 72 72
20 39 63 26 34 44 45 49 56 57 32 25 40 49 40 29 28 52 61 73 76 78 81 85 90 84 81 85 89 91 102 105 105 108 110 107 104 99 96 90 85 77 74 74
44 50 42 35 35 42 50 54 61 49 33 25 32 48 53 35 36 63 91 101 89 84 85 87 83 86 85 85 92 98 104 108 107 108 104 98 92 92 95 96 90 85 79 79
44 62 63 53 52 47 56 52 52 46 37 33 16 40 59 32 30 39 33 73 83 84 86 85 81 79 76 87 92 93 101 105 108 109 108 109 113 113 111 106 96 90 89 85
34 51 47 33 63 57 60 45 43 31 26 28 40 21 65 15 16 20 20 39 58 75 61 54 59 64 67 68 80 88 92 100 108 112 110 112 112 110 106 105 102 97 95 88
43 53 35 41 37 26 26 43 19 3 7 24 46 41 51 31 33 37 48 25 22 29 19 10 3 14 19 33 50 71 81 97 104 109 109 111 112 112 110 105 106 103 97 89
40 19 19 21 48 37 31 15 15 9 14 29 36 26 36 19 25 39 7 12 23 32 27 18 13 10 9 21 29 57 71 85 94 102 103 105 106 107 110 110 107 108 104 98
25 28 36 37 34 21 24 26 19 17 21 20 33 18 25 38 69 63 29 37 53 51 46 39 28 18 11 9 8 37 57 65 82 90 96 98 99 101 103 105 106 106 106 99
18 32 67 51 48 36 7 26 40 41 40 12 11 14 19 32 22 22 27 46 45 48 45 42 33 32 25 14 1 13 29 40 60 73 82 88 90 95 99 99 100 102 99 100
17 40 26 46 51 15 30 28 12 8 9 11 12 15 16 18 20 22 24 23 40 42 41 42 39 34 30 23 15 9 11 21 40 51 63 69 80 84 86 92 96 97 98 97
31 12 39 28 16 45 39 15 12 16 14 10 6 5 12 17 17 20 21 33 40 43 43 42 39 35 29 23 16 16 17 15 22 28 43 52 63 68 78 81 84 87 91 91
17 14 17 49 54 27 28 23 24 12 18 17 20 33 15 17 17 18 23 35 41 42 41 42 43 42 41 39 32 17 13 16 17 18 29 40 47 52 64 65 73 79 84 85
28 7 22 31 14 28 32 40 35 34 21 9 8 8 11 17 22 29 26 38 41 43 45 46 46 45 46 49 40 33 23 13 11 12 16 23 33 41 53 57 61 69 76 77
35 8 2 21 35 38 43 49 40 25 18 26 30 40 37 21 21 23 33 42 44 46 49 48 52 51 44 46 44 39 32 23 19 17 20 21 21 27 37 47 53 58 67 70
11 9 10 30 45 42 47 54 46 35 32 30 45 41 33 14 18 24 40 42 44 48 49 51 52 51 47 49 51 45 37 30 21 16 19 22 24 27 29 36 40 49 57 63
16 12 23 34 42 43 48 45 42 36 37 34 31 24 30 26 36 37 39 40 41 43 44 46 49 52 52 48 52 48 46 40 31 26 18 11 14 26 30 32 34 37 46 54
17 4 8 13 31 41 21 12 11 25 19 18 11 18 25 20 27 36 40 39 37 38 40 43 47 48 49 47 48 53 50 43 41 42 35 25 17 9 15 27 36 40 41 45
9 4 5 13 16 7 9 34 23 26 10 14 13 20 27 15 27 32 33 29 31 34 36 38 43 48 52 48 48 49 51 47 48 48 46 39 33 24 14 3 14 27 35 40
3 2 6 2 4 21 12 20 28 18 8 13 17 21 29 6 17 32 33 31 30 29 30 31 33 39 46 49 44 43 49 53 51 53 52 49 43 39 33 22 11 3 15 27
14 3 6 9 6 9 1 19 33 19 6 4 12 15 20 28 7 5 29 31 29 29 32 33 32 36 44 48 49 49 51 49 48 51 51 49 48 46 43 38 31 21 9 8
8 8 10 14 10 14 2 16 31 7 10 26 3 5 12 6 3 18 21 21 24 27 30 33 35 36 38 39 43 44 46 49 50 46 45 42 40 40 42 41 39 35 28 15
13 11 8 8 8 12 10 24 5 8 26 26 9 5 10 9 12 16 19 20 24 28 28 29 30 32 34 34 36 38 42 45 46 43 39 38 39 40 40 39 37 35 34 32
18 13 11 11 13 22 56 36 26 25 30 25 16 10 13 17 16 19 23 25 27 25 28 30 31 33 36 37 39 40 44 48 50 48 46 43 39 36 34 37 38 37 37 34
14 26 22 20 14 20 50 44 42 32 29 25 22 20 20 15 20 21 22 25 27 27 31 36 37 38 41 45 44 44 47 53 57 57 53 50 49 46 42 39 38 35 34 37
25 11 23 38 36 41 52 64 45 30 30 27 26 25 23 23 24 26 28 31 33 35 37 42 46 50 52 54 54 55 59 64 67 65 65 64 62 59 57 52 48 43 38 37
35 41 24 33 34 34 32 29 29 29 27 28 32 32 28 27 29 29 35 37 41 47 50 53 56 59 60 60 60 65 70 71 74 76 75 75 76 73 70 68 66 54 47 43
Wind_Direction_500mb
196 204 217 226 209 229 245 263 266 262 247 234 241 249 249 236 249 264 264 256 253 253 253 250 246 241 237 232 225 218 218 221 223 218 217 216 216 218 221 223 225 221 217 217
247 229 235 254 227 236 247 254 258 267 264 259 271 265 258 246 250 260 264 264 259 254 251 247 240 237 242 240 225 219 218 222 225 223 222 223 221 221 222 220 222 220 219 218
258 259 257 243 258 257 250 245 251 254 268 266 264 269 266 256 259 256 255 255 255 253 253 250 249 246 239 240 232 221 220 223 225 223 220 217 217 217 214 216 218 218 217 217
257 268 275 275 265 256 257 254 259 264 265 256 214 261 266 264 248 249 253 246 246 247 248 251 251 249 247 241 241 226 220 218 223 221 220 218 219 215 218 219 219 219 218 218
284 266 264 299 253 260 262 281 252 259 261 261 250 272 272 196 253 279 288 266 246 240 243 247 251 252 247 242 238 226 220 215 220 223 225 221 219 222 220 218 218 217 217 215
279 268 272 265 280 305 319 261 247 290 264 242 239 220 262 252 252 253 260 271 63 59 71 63 315 254 227 231 233 222 221 217 219 224 225 224 222 220 218 218 217 217 217 215
329 283 292 238 264 260 279 267 233 232 220 243 244 244 234 263 235 247 237 79 47 50 60 44 25 20 312 233 225 225 224 218 219 223 225 225 225 222 223 222 220 219 216 214
341 321 1 327 300 295 236 225 223 226 234 252 236 227 222 250 240 255 62 70 62 52 49 42 30 14 10 278 226 228 226 224 221 224 225 226 225 225 227 228 227 225 223 220
320 299 313 304 336 314 303 253 268 261 286 294 254 299 229 252 258 70 67 63 56 49 42 37 31 34 28 42 239 224 226 227 221 223 226 224 224 225 226 230 230 229 227 224
296 302 302 321 313 293 338 285 264 240 246 248 236 256 264 334 47 63 58 58 55 49 42 37 30 30 39 52 74 135 197 230 219 223 226 228 225 225 226 230 231 229 228 225
316 280 302 339 346 329 320 6 326 297 226 256 272 220 8 46 44 72 61 60 57 55 49 44 38 31 35 41 68 100 121 136 204 220 219 220 220 223 221 224 230 232 230 226
312 294 325 308 306 79 20 6 360 350 332 310 284 273 67 64 61 67 69 60 56 55 50 46 42 41 41 40 40 56 101 134 147 177 210 213 217 218 216 223 227 229 230 231
316 309 339 327 328 326 347 326 328 315 280 262 299 290 54 68 53 50 55 54 52 45 42 39 38 39 39 33 37 43 60 85 148 167 192 209 216 219 218 222 223 224 228 232
351 345 282 285 288 299 303 304 311 300 303 325 300 314 321 11 54 47 52 49 43 38 35 32 33 31 39 37 33 41 55 74 94 148 160 169 186 211 220 221 222 224 228 230
303 271 275 282 288 291 289 293 297 286 272 269 288 293 338 45 43 37 36 35 34 29 24 24 25 24 33 36 32 40 47 56 73 116 154 167 180 188 195 211 221 224 227 232
291 277 297 286 283 291 295 289 286 277 274 268 268 289 358 346 32 35 37 31 28 26 20 17 18 19 26 32 31 33 43 47 54 66 80 118 178 197 199 203 203 217 227 233
294 292 295 286 308 313 297 332 8 349 37 342 346 350 339 39 43 34 23 28 23 22 18 16 14 15 21 32 33 32 36 44 52 56 58 66 78 116 195 208 209 209 212 222
233 302 268 277 313 318 90 3 334 338 36 13 349 353 339 75 68 48 34 31 27 21 19 18 16 17 21 30 36 34 36 38 45 49 51 55 57 58 64 128 216 220 222 223
234 33 295 198 281 275 347 5 345 336 346 10 351 358 356 301 130 52 26 22 20 17 15 20 18 12 14 23 29 28 31 35 37 40 41 40 43 47 45 48 47 274 236 233
284 240 186 295 260 253 325 333 333 310 181 2 14 0 358 5 351 41 4 360 1 6 9 15 20 10 12 14 15 15 18 22 26 27 29 29 29 33 38 37 39 35 7 263
311 308 262 274 278 271 261 344 330 34 313 344 339 354 12 24 332 322 340 345 345 346 353 359 5 6 5 5 6 7 7 14 15 17 19 18 14 14 19 23 30 31 30 22
274 278 259 262 245 288 348 9 349 230 295 325 315 306 314 312 313 321 326 330 333 336 340 341 347 348 350 358 359 358 358 360 1 4 7 9 9 7 360 359 1 8 17 24
260 205 249 221 235 284 293 291 272 259 274 287 275 274 282 296 291 296 304 314 319 324 323 325 332 334 339 346 346 345 344 346 348 351 351 352 354 356 357 353 351 352 354 355
252 242 253 267 236 249 269 273 279 254 254 256 258 258 265 267 285 299 301 300 305 305 312 314 322 325 329 330 330 329 331 333 333 333 336 337 335 336 340 343 345 349 348 344
256 269 258 264 270 272 264 265 258 239 258 261 264 265 262 263 270 280 286 293 294 298 304 308 315 316 317 317 318 319 319 322 321 322 322 322 322 323 323 325 329 330 333 333
255 254 248 258 263 256 267 275 257 248 243 255 260 266 269 272 277 282 287 293 294 297 301 304 306 306 306 306 306 306 309 312 312 312 311 310 310 311 312 312 309 308 308 306
Wind_Speed_850mb
38 14 32 65 47 49 44 40 44 44 22 20 39 49 42 28 42 39 55 64 74 80 86 74 71 75 78 80 84 90 97 101 99 103 107 104 102 95 89 83 78 73 72 72
20 39 63 26 34 44 45 49 56 57 32 25 40 49 40 29 28 52 61 73 76 78 81 85 90 84 81 85 89 91 102 105 105 108 110 107 104 99 96 90 85 77 74 74
44 50 42 35 35 42 50 54 61 49 33 25 32 48 53 35 36 63 91 101 89 84 85 87 83 86 85 85 92 98 104 108 107 108 104 98 92 92 95 96 90 85 79 79
44 62 63 53 52 47 56 52 52 46 37 33 16 40 59 32 30 39 33 73 83 84 86 85 81 79 76 87 92 93 101 105 108 109 108 109 113 113 111 106 96 90 89 85
34 51 47 33 63 57 60 45 43 31 26 28 40 21 65 15 16 20 20 39 58 75 61 54 59 64 67 68 80 88 92 100 108 112 110 112 112 110 106 105 102 97 95 88
43 53 35 41 37 26 26 43 19 3 7 24 46 41 51 31 33 37 48 25 22 29 19 10 3 14 19 33 50 71 81 97 104 109 109 111 112 112 110 105 106 103 97 89
40 19 19 21 48 37 31 15 15 9 14 29 36 26 36 19 25 39 7 12 23 32 27 18 13 10 9 21 29 57 71 85 94 102 103 105 106 107 110 110 107 108 104 98
25 28 36 37 34 21 24 26 19 17 21 20 33 18 25 38 69 63 29 37 53 51 46 39 28 18 11 9 8 37 57 65 82 90 96 98 99 101 103 105 106 106 106 99
18 32 67 51 48 36 7 26 40 41 40 12 11 14 19 32 22 22 27 46 45 48 45 42 33 32 25 14 1 13 29 40 60 73 82 88 90 95 99 99 100 102 99 100
17 40 26 46 51 15 30 28 12 8 9 11 12 15 16 18 20 22 24 23 40 42 41 42 39 34 30 23 15 9 11 21 40 51 63 69 80 84 86 92 96 97 98 97
31 12 39 28 16 45 39 15 12 16 14 10 6 5 12 17 17 20 21 33 40 43 43 42 39 35 29 23 16 16 17 15 22 28 43 52 63 68 78 81 84 87 91 91
17 14 17 49 54 27 28 23 24 12 18 17 20 33 15 17 17 18 23 35 41 42 41 42 43 42 41 39 32 17 13 16 17 18 29 40 47 52 64 65 73 79 84 85
28 7 22 31 14 28 32 40 35 34 21 9 8 8 11 17 22 29 26 38 41 43 45 46 46 45 46 49 40 33 23 13 11 12 16 23 33 41 53 57 61 69 76 77
35 8 2 21 35 38 43 49 40 25 18 26 30 40 37 21 21 23 33 42 44 46 49 48 52 51 44 46 44 39 32 23 19 17 20 21 21 27 37 47 53 58 67 70
11 9 10 30 45 42 47 54 46 35 32 30 45 41 33 14 18 24 40 42 44 48 49 51 52 51 47 49 51 45 37 30 21 16 19 22 24 27 29 36 40 49 57 63
16 12 23 34 42 43 48 45 42 36 37 34 31 24 30 26 36 37 39 40 41 43 44 46 49 52 52 48 52 48 46 40 31 26 18 11 14 26 30 32 34 37 46 54
17 4 8 13 31 41 21 12 11 25 19 18 11 18 25 20 27 36 40 39 37 38 40 43 47 48 49 47 48 53 50 43 41 42 35 25 17 9 15 27 36 40 41 45
9 4 5 13 16 7 9 34 23 26 10 14 13 20 27 15 27 32 33 29 31 34 36 38 43 48 52 48 48 49 51 47 48 48 46 39 33 24 14 3 14 27 35 40
3 2 6 2 4 21 12 20 28 18 8 13 17 21 29 6 17 32 33 31 30 29 30 31 33 39 46 49 44 43 49 53 51 53 52 49 43 39 33 22 11 3 15 27
14 3 6 9 6 9 1 19 33 19 6 4 12 15 20 28 7 5 29 31 29 29 32 33 32 36 44 48 49 49 51 49 48 51 51 49 48 46 43 38 31 21 9 8
8 8 10 14 10 14 2 16 31 7 10 26 3 5 12 6 3 18 21 21 24 27 30 33 35 36 38 39 43 44 46 49 50 46 45 42 40 40 42 41 39 35 28 15
13 11 8 8 8 12 10 24 5 8 26 26 9 5 10 9 12 16 19 20 24 28 28 29 30 32 34 34 36 38 42 45 46 43 39 38 39 40 40 39 37 35 34 32
18 13 11 11 13 22 56 36 26 25 30 25 16 10 13 17 16 19 23 25 27 25 28 30 31 33 36 37 39 40 44 48 50 48 46 43 39 36 34 37 38 37 37 34
14 26 22 20 14 20 50 44 42 32 29 25 22 20 20 15 20 21 22 25 27 27 31 36 37 38 41 45 44 44 47 53 57 57 53 50 49 46 42 39 38 35 34 37
25 11 23 38 36 41 52 64 45 30 30 27 26 25 23 23 24 26 28 31 33 35 37 42 46 50 52 54 54 55 59 64 67 65 65 64 62 59 57 52 48 43 38 37
35 41 24 33 34 34 32 29 29 29 27 28 32 32 28 27 29 29 35 37 41 47 50 53 56 59 60 60 60 65 70 71 74 76 75 75 76 73 70 68 66 54 47 43
Wind_Direction_850mb
196 204 217 226 209 229 245 263 266 262 247 234 241 249 249 236 249 264 264 256 253 253 253 250 246 241 237 232 225 218 218 221 223 218 217 216 216 218 221 223 225 221 217 217
247 229 235 254 227 236 247 254 258 267 264 259 271 265 258 246 250 260 264 264 259 254 251 247 240 237 242 240 225 219 218 222 225 223 222 223 221 221 222 220 222 220 219 218
258 259 257 243 258 257 250 245 251 254 268 266 264 269 266 256 259 256 255 255 255 253 253 250 249 246 239 240 232 221 220 223 225 223 220 217 217 217 214 216 218 218 217 217
257 268 275 275 265 256 257 254 259 264 265 256 214 261 266 264 248 249 253 246 246 247 248 251 251 249 247 241 241 226 220 218 223 221 220 218 219 215 218 219 219 219 218 218
284 266 264 299 253 260 262 281 252 259 261 261 250 272 272 196 253 279 288 266 246 240 243 247 251 252 247 242 238 226 220 215 220 223 225 221 219 222 220 218 218 217 217 215
279 268 272 265 280 305 319 261 247 290 264 242 239 220 262 252 252 253 260 271 63 59 71 63 315 254 227 231 233 222 221 217 219 224 225 224 222 220 218 218 217 217 217 215
329 283 292 238 264 260 279 267 233 232 220 243 244 244 234 263 235 247 237 79 47 50 60 44 25 20 312 233 225 225 224 218 219 223 225 225 225 222 223 222 220 219 216 214
341 321 1 327 300 295 236 225 223 226 234 252 236 227 222 250 240 255 62 70 62 52 49 42 30 14 10 278 226 228 226 224 221 224 225 226 225 225 227 228 227 225 223 220
320 299 313 304 336 314 303 253 268 261 286 294 254 299 229 252 258 70 67 63 56 49 42 37 31 34 28 42 239 224 226 227 221 223 226 224 224 225 226 230 230 229 227 224
296 302 302 321 313 293 338 285 264 240 246 248 236 256 264 334 47 63 58 58 55 49 42 37 30 30 39 52 74 135 197 230 219 223 226 228 225 225 226 230 231 229 228 225
316 280 302 339 346 329 320 6 326 297 226 256 272 220 8 46 44 72 61 60 57 55 49 44 38 31 35 41 68 100 121 136 204 220 219 220 220 223 221 224 230 232 230 226
312 294 325 308 306 79 20 6 360 350 332 310 284 273 67 64 61 67 69 60 56 55 50 46 42 41 41 40 40 56 101 134 147 177 210 213 217 218 216 223 227 229 230 231
316 309 339 327 328 326 347 326 328 315 280 262 299 290 54 68 53 50 55 54 52 45 42 39 38 39 39 33 37 43 60 85 148 167 192 209 216 219 218 222 223 224 228 232
351 345 282 285 288 299 303 304 311 300 303 325 300 314 321 11 54 47 52 49 43 38 35 32 33 31 39 37 33 41 55 74 94 148 160 169 186 211 220 221 222 224 228 230
303 271 275 282 288 291 289 293 297 286 272 269 288 293 338 45 43 37 36 35 34 29 24 24 25 24 33 36 32 40 47 56 73 116 154 167 180 188 195 211 221 224 227 232
291 277 297 286 283 291 295 289 286 277 274 268 268 289 358 346 32 35 37 31 28 26 20 17 18 19 26 32 31 33 43 47 54 66 80 118 178 197 199 203 203 217 227 233
294 292 295 286 308 313 297 332 8 349 37 342 346 350 339 39 43 34 23 28 23 22 18 16 14 15 21 32 33 32 36 44 52 56 58 66 78 116 195 208 209 209 212 222
233 302 268 277 313 318 90 3 334 338 36 13 349 353 339 75 68 48 34 31 27 21 19 18 16 17 21 30 36 34 36 38 45 49 51 55 57 58 64 128 216 220 222 223
234 33 295 198 281 275 347 5 345 336 346 10 351 358 356 301 130 52 26 22 20 17 15 20 18 12 14 23 29 28 31 35 37 40 41 40 43 47 45 48 47 274 236 233
284 240 186 295 260 253 325 333 333 310 181 2 14 0 358 5 351 41 4 360 1 6 9 15 20 10 12 14 15 15 18 22 26 27 29 29 29 33 38 37 39 35 7 263
311 308 262 274 278 271 261 344 330 34 313 344 339 354 12 24 332 322 340 345 345 346 353 359 5 6 5 5 6 7 7 14 15 17 19 18 14 14 19 23 30 31 30 22
274 278 259 262 245 288 348 9 349 230 295 325 315 306 314 312 313 321 326 330 333 336 340 341 347 348 350 358 359 358 358 360 1 4 7 9 9 7 360 359 1 8 17 24
260 205 249 221 235 284 293 291 272 259 274 287 275 274 282 296 291 296 304 314 319 324 323 325 332 334 339 346 346 345 344 346 348 351 351 352 354 356 357 353 351 352 354 355
252 242 253 267 236 249 269 273 279 254 254 256 258 258 265 267 285 299 301 300 305 305 312 314 322 325 329 330 330 329 331 333 333 333 336 337 335 336 340 343 345 349 348 344
256 269 258 264 270 272 264 265 258 239 258 261 264 265 262 263 270 280 286 293 294 298 304 308 315 316 317 317 318 319 319 322 321 322 322 322 322 323 323 325 329 330 333 333
255 254 248 258 263 256 267 275 257 248 243 255 260 266 269 272 277 282 287 293 294 297 301 304 306 306 306 306 306 306 309 312 312 312 311 310 310 311 312 312 309 308 308 306